Location: Unspecified
(0.0000°N, 0.0000°E)
Time: 07:56:36
(UTC+00:00)

deb r/b Ablestar - Pass Details

Date: 21 December 2025
Orbit: 674 x 763 km, 66.8° (Epoch: 18 January)

Event Time Altitude Azimuth Distance (km) Brightness Sun altitude
Rises 19:49:44 0° 184° (S) 3,160 ? -25.4°
Reaches altitude 10° 19:52:16 10° 174° (S) 2,250 ? -25.9°
Enters shadow 19:54:57 26° 151° (SSE) 1,452 ? -26.5°
